Weather reports worldwide

Advertisment
Capo Carbonara, Italy (16564): temperature & dewpoint: 08.12.2018 01:00:00 - 14.12.2018 01:00:00 (CET)Capo Carbonara, Italy (16564): wind speed: 08.12.2018 01:00:00 - 14.12.2018 01:00:00 (CET)Capo Carbonara, Italy (16564): wind direction: 08.12.2018 01:00:00 - 14.12.2018 01:00:00 (CET)Capo Carbonara, Italy (16564): reduced air pressure: 08.12.2018 01:00:00 - 14.12.2018 01:00:00 (CET)Capo Carbonara, Italy (16564): visibility: 08.12.2018 01:00:00 - 14.12.2018 01:00:00 (CET)
Date & Time tt [°C] td [°C] ff [km/h] ff [kn] dd ppp [hPa] vv [km]
14.12.2018 01:00:00 - - - - - - -
14.12.2018 00:00:00 14,0 11,0 54 29 SW - 10
13.12.2018 23:00:00 13,0 11,0 44 24 SSW - 10
13.12.2018 22:00:00 15,0 12,0 44 24 SW 1007,0 10
13.12.2018 21:00:00 15,0 12,0 46 25 SW - 10
13.12.2018 20:00:00 15,0 12,0 41 22 SW - 10
13.12.2018 19:00:00 15,0 12,1 44 24 SW 1007,5 10
13.12.2018 18:00:00 15,0 12,0 44 24 SW - 10
13.12.2018 17:00:00 15,0 12,0 44 24 SW - 10
13.12.2018 16:00:00 15,0 11,6 57 31 SW 1007,7 10
13.12.2018 15:00:00 15,0 12,0 41 22 WSW - 10
13.12.2018 14:00:00 14,0 12,0 29 16 SW - 10
13.12.2018 13:00:00 13,8 11,5 29 16 WSW 1010,5 10
13.12.2018 12:00:00 13,0 10,0 28 15 WSW - 10
13.12.2018 11:00:00 12,0 9,0 22 12 WSW - 10
13.12.2018 10:00:00 12,0 7,9 24 13 WSW 1012,7 20
13.12.2018 09:00:00 12,0 8,0 22 12 W - 10
13.12.2018 08:00:00 12,0 8,0 26 14 W - 10
13.12.2018 07:00:00 11,8 7,8 34 18 W 1013,1 10
13.12.2018 06:00:00 12,0 8,0 37 20 W - 10
13.12.2018 05:00:00 12,0 9,0 41 22 W - 10
13.12.2018 04:00:00 12,0 6,2 28 15 W 1013,7 10
13.12.2018 03:00:00 12,0 6,0 16 9 W - 10
13.12.2018 02:00:00 12,0 8,0 35 19 W - 10
13.12.2018 01:00:00 12,0 7,9 24 13 W 1014,9 10
13.12.2018 00:00:00 12,0 8,0 35 19 WNW - 10
12.12.2018 23:00:00 12,0 9,0 29 16 W - 10
12.12.2018 22:00:00 12,0 9,0 22 12 W 1015,8 10
12.12.2018 21:00:00 12,0 9,0 21 11 W - 10
12.12.2018 20:00:00 12,0 9,0 24 13 W - 10
12.12.2018 19:00:00 12,2 9,5 21 11 W 1016,5 10
12.12.2018 18:00:00 12,0 10,0 11 6 W - 10
12.12.2018 17:00:00 12,0 10,0 16 9 WSW - 10
12.12.2018 16:00:00 13,0 10,1 16 9 WSW 1016,8 10
12.12.2018 15:00:00 12,0 10,0 24 13 W - 10
12.12.2018 14:00:00 13,0 11,0 18 10 WSW - 10
12.12.2018 13:00:00 13,0 10,7 28 15 WSW 1017,8 20
12.12.2018 12:00:00 13,0 10,0 26 14 W - 10
12.12.2018 11:00:00 13,0 10,0 15 8 W - 10
12.12.2018 10:00:00 12,0 9,7 18 10 W 1018,6 20
12.12.2018 09:00:00 12,0 9,0 18 10 W - 10
12.12.2018 08:00:00 11,0 8,0 18 10 WNW - 10
12.12.2018 07:00:00 11,0 8,0 15 8 WNW - 10
12.12.2018 06:00:00 11,0 8,0 28 15 WNW - 10
12.12.2018 05:00:00 11,0 8,0 29 16 W - 10
12.12.2018 04:00:00 11,0 8,0 28 15 WNW 1018,3 10
12.12.2018 03:00:00 11,0 9,0 28 15 WNW - 10
12.12.2018 02:00:00 - - - - - - -
12.12.2018 01:00:00 11,0 8,3 15 8 W 1019,1 10
12.12.2018 00:00:00 11,0 9,0 15 8 W - 10
11.12.2018 23:00:00 12,0 10,0 9 5 W - 10
11.12.2018 22:00:00 12,0 9,0 15 8 W - 10
11.12.2018 21:00:00 12,0 9,0 18 10 W - 10
11.12.2018 20:00:00 12,0 8,0 22 12 W - 10
11.12.2018 19:00:00 12,4 7,5 28 15 W 1018,5 10
11.12.2018 18:00:00 13,0 9,0 34 18 W - 10
11.12.2018 17:00:00 13,0 9,0 37 20 WNW - 10
11.12.2018 16:00:00 13,8 8,0 41 22 W 1018,0 10
11.12.2018 15:00:00 14,0 8,0 37 20 WNW - 10
11.12.2018 14:00:00 14,0 8,0 46 25 WNW - 10
11.12.2018 13:00:00 14,2 8,1 52 28 WNW 1018,2 10
11.12.2018 12:00:00 13,0 9,0 46 25 WNW - 10
11.12.2018 11:00:00 12,0 9,0 34 18 WNW - 10
11.12.2018 10:00:00 11,4 8,8 34 18 WNW 1019,5 10
11.12.2018 09:00:00 11,0 8,0 28 15 W - 10
11.12.2018 08:00:00 11,0 8,0 22 12 W - 10
11.12.2018 07:00:00 11,2 7,9 28 15 WNW 1019,2 10
11.12.2018 06:00:00 11,0 9,0 28 15 W - 10
11.12.2018 05:00:00 12,0 9,0 41 22 WNW - 10
11.12.2018 04:00:00 11,8 8,8 41 22 WNW 1018,8 10
11.12.2018 03:00:00 12,0 8,0 37 20 WNW - 10
11.12.2018 02:00:00 13,0 7,0 55 30 W - 10
11.12.2018 01:00:00 12,8 6,6 55 30 W 1019,2 10
11.12.2018 00:00:00 13,0 6,0 52 28 W - 10
10.12.2018 23:00:00 13,0 6,0 46 25 W - 10
10.12.2018 22:00:00 12,2 6,5 46 25 W 1019,0 10
10.12.2018 21:00:00 - - - - - - -
10.12.2018 20:00:00 12,0 8,0 46 25 WNW - 10
10.12.2018 19:00:00 13,0 8,0 46 25 WNW 1018,8 10
10.12.2018 18:00:00 13,0 7,0 37 20 WNW - 10
10.12.2018 17:00:00 13,0 7,0 41 22 WNW - 10
10.12.2018 16:00:00 14,2 7,0 55 30 WNW 1018,8 10
10.12.2018 15:00:00 14,0 7,0 46 25 WNW - 10
10.12.2018 14:00:00 15,0 8,0 46 25 W - 10
10.12.2018 13:00:00 15,0 8,3 52 28 W 1018,9 10
10.12.2018 12:00:00 15,0 9,0 46 25 W - 10
10.12.2018 11:00:00 14,0 9,0 46 25 W - 10
10.12.2018 10:00:00 14,0 9,7 52 28 W 1019,2 10
10.12.2018 09:00:00 13,0 10,0 55 30 W - 10
10.12.2018 08:00:00 14,0 9,0 55 30 W - 10
10.12.2018 07:00:00 13,6 9,3 63 34 W 1018,5 10
10.12.2018 06:00:00 14,0 8,0 70 38 WNW - 10
10.12.2018 05:00:00 14,0 8,0 70 38 WNW - 10
10.12.2018 04:00:00 14,0 8,0 22 12 NW 1018,3 10
10.12.2018 03:00:00 14,0 9,0 55 30 W - 10
10.12.2018 02:00:00 14,0 9,0 74 40 W - 10
10.12.2018 01:00:00 14,0 10,1 81 44 W 1016,9 10
10.12.2018 00:00:00 15,0 11,0 78 42 W - 10
09.12.2018 23:00:00 15,0 11,0 70 38 W - 10
09.12.2018 22:00:00 15,0 11,2 63 34 WNW 1018,0 10
09.12.2018 21:00:00 15,0 11,0 55 30 WNW - 10
09.12.2018 20:00:00 15,0 11,0 68 37 W - 10
09.12.2018 19:00:00 15,0 12,8 63 34 W 1018,2 10
09.12.2018 18:00:00 16,0 13,0 65 35 W - 10
09.12.2018 17:00:00 16,0 13,0 70 38 W - 10
09.12.2018 16:00:00 16,2 12,7 78 42 W 1017,3 10
09.12.2018 15:00:00 17,0 13,0 83 45 W - 10
09.12.2018 14:00:00 17,0 13,0 70 38 W - 10
09.12.2018 13:00:00 16,0 12,6 65 35 W 1019,8 10
09.12.2018 12:00:00 16,0 11,0 87 47 W - 10
09.12.2018 11:00:00 16,0 11,0 83 45 W - 10
09.12.2018 10:00:00 15,4 10,4 46 25 W 1021,1 10
09.12.2018 09:00:00 15,0 12,0 50 27 W - 10
09.12.2018 08:00:00 14,0 12,0 54 29 W - 10
09.12.2018 07:00:00 14,0 12,2 44 24 WNW 1020,7 10
09.12.2018 06:00:00 - - - - - - -
09.12.2018 05:00:00 13,0 10,0 26 14 W - 10
09.12.2018 04:00:00 13,2 9,0 28 15 NNW 1021,0 10
09.12.2018 03:00:00 13,0 9,0 31 17 NNW - 10
09.12.2018 02:00:00 13,0 10,0 37 20 WNW - 10
09.12.2018 01:00:00 13,0 10,1 42 23 WNW 1021,3 10
09.12.2018 00:00:00 13,0 10,0 37 20 WNW - 10
08.12.2018 23:00:00 13,0 9,0 37 20 WNW - 10
08.12.2018 22:00:00 13,0 8,0 48 26 WNW 1020,6 10
08.12.2018 21:00:00 13,0 9,0 46 25 WNW - 10
08.12.2018 20:00:00 13,0 8,0 39 21 WNW - 10
08.12.2018 19:00:00 13,0 8,7 46 25 WNW 1020,0 10
08.12.2018 18:00:00 13,0 9,0 52 28 WNW - 10
08.12.2018 17:00:00 13,0 8,0 61 33 WNW - 10
08.12.2018 16:00:00 14,8 8,3 55 30 WNW 1018,3 10
08.12.2018 15:00:00 15,0 8,0 63 34 W - 10
08.12.2018 14:00:00 15,0 7,0 50 27 W - 10
08.12.2018 13:00:00 14,8 7,9 42 23 WNW 1018,6 10
08.12.2018 12:00:00 14,0 9,0 46 25 W - 10
08.12.2018 11:00:00 14,0 8,0 48 26 W - 10
08.12.2018 10:00:00 13,8 9,3 42 23 W 1019,7 10
08.12.2018 09:00:00 14,0 9,0 46 25 W - 10
08.12.2018 08:00:00 15,0 11,0 34 18 W - 10
08.12.2018 07:00:00 14,6 10,6 34 18 W 1019,3 10
08.12.2018 06:00:00 14,0 10,0 37 20 W - 10
08.12.2018 05:00:00 14,0 10,0 41 22 W - 10
08.12.2018 04:00:00 13,0 10,1 29 16 W 1019,9 10
08.12.2018 03:00:00 13,0 10,0 29 16 W - 10
08.12.2018 02:00:00 13,0 10,0 34 18 W - 10
08.12.2018 01:00:00 13,0 10,6 29 16 W 1020,6 10

tt = temperature
td = dewpoint
ff = wind speed
dd = wind direction
ppp = reduced air pressure
vv = visibility

Next stations